This is the latest recevied weather packets stored in our database for station/object I1SXT-13. If no packets are shown the sender has not sent any weather packets the latest 10 day(s).
| Time | Temp. | Humidity | Pressure | Rain* | Wind** | Luminosity | Snow |
|---|---|---|---|---|---|---|---|
| 1778240667 | 23.33° C | 41% | 1014.2 hPa | 0 mm | - | - | - |
| 1778240370 | 22.78° C | 44% | 1015.1 hPa | 0 mm | - | - | - |
| 1778240066 | 23.33° C | 42% | 1014.3 hPa | 0 mm | - | - | - |
| 1778239768 | 23.33° C | 44% | 1014.7 hPa | 0 mm | - | - | - |
| 1778239167 | 22.78° C | 38% | 1014.8 hPa | 0 mm | - | - | - |
| 1778238870 | 22.78° C | 40% | 1015.1 hPa | 0 mm | - | - | - |
| 1778238566 | 22.78° C | 45% | 1015 hPa | 0 mm | - | - | - |
| 1778238269 | 23.33° C | 51% | 1015.1 hPa | 0 mm | - | - | - |
| 1778237965 | 23.33° C | 52% | 1014.5 hPa | 0 mm | - | - | - |
| 1778237364 | 23.33° C | 54% | 1014.5 hPa | 0 mm | - | - | - |
| 1778237066 | 22.78° C | 53% | 1014.7 hPa | 0 mm | - | - | - |
| 1778236769 | 22.78° C | 48% | 1015.6 hPa | 0 mm | - | - | - |
| 1778236465 | 22.78° C | 53% | 1015.1 hPa | 0 mm | - | - | - |
| 1778236168 | 22.78° C | 54% | 1015.1 hPa | 0 mm | - | - | - |
| 1778235864 | 22.78° C | 51% | 1015.1 hPa | 0 mm | - | - | - |
| 1778235567 | 22.78° C | 53% | 1014.4 hPa | 0 mm | - | - | - |
| 1778235270 | 22.78° C | 57% | 1014.6 hPa | 0 mm | - | - | - |
| 1778234965 | 22.78° C | 63% | 1014 hPa | 0 mm | - | - | - |
| 1778234668 | 22.22° C | 57% | 1015.1 hPa | 0 mm | - | - | - |
| 1778234067 | 22.22° C | 55% | 1014.5 hPa | 0 mm | - | - | - |
| 1778233770 | 22.78° C | 55% | 1014.4 hPa | 0 mm | - | - | - |
| 1778233466 | 22.22° C | 56% | 1014.6 hPa | 0 mm | - | - | - |
| 1778233168 | 22.22° C | 55% | 1014.2 hPa | 0 mm | - | - | - |
| 1778232864 | 22.22° C | 62% | 1014.3 hPa | 0 mm | - | - | - |
| 1778232567 | 21.67° C | 61% | 1014.5 hPa | 0 mm | - | - | - |
* Rain since midnight (hover to see other rain measurements)
** Current wind speed in m/s (hover to see current wind gust speed)